�搅�E���B���j�^�v������
Date,Time,�搅(cps),���B(cps),���J
2023/10/12,00:00,6.6,5.1,��
2023/10/12,00:10,6.6,5.0,��
2023/10/12,00:20,6.8,4.9,��
2023/10/12,00:30,6.6,5.0,��
2023/10/12,00:40,6.7,4.9,��
2023/10/12,00:50,6.6,4.8,��
2023/10/12,01:00,6.5,5.0,��
2023/10/12,01:10,6.7,4.9,��
2023/10/12,01:20,6.6,5.0,��
2023/10/12,01:30,6.7,4.8,��
2023/10/12,01:40,6.8,4.9,��
2023/10/12,01:50,6.7,4.9,��
2023/10/12,02:00,6.7,4.8,��
2023/10/12,02:10,6.7,5.0,��
2023/10/12,02:20,6.8,4.8,��
2023/10/12,02:30,6.7,4.8,��
2023/10/12,02:40,6.3,4.8,��
2023/10/12,02:50,6.6,5.0,��
2023/10/12,03:00,6.6,4.9,��
2023/10/12,03:10,6.7,4.9,��
2023/10/12,03:20,6.7,4.9,��
2023/10/12,03:30,6.8,5.0,��
2023/10/12,03:40,6.8,5.0,��
2023/10/12,03:50,6.8,5.0,��
2023/10/12,04:00,6.6,5.0,��
2023/10/12,04:10,6.6,4.9,��
2023/10/12,04:20,6.7,4.8,��
2023/10/12,04:30,6.9,5.0,��
2023/10/12,04:40,6.6,4.9,��
2023/10/12,04:50,6.8,4.9,��
2023/10/12,05:00,6.7,4.7,��
2023/10/12,05:10,6.6,4.9,��
2023/10/12,05:20,6.7,4.8,��
2023/10/12,05:30,6.6,4.8,��
2023/10/12,05:40,6.9,4.9,��
2023/10/12,05:50,6.7,4.9,��
2023/10/12,06:00,6.7,5.0,��
2023/10/12,06:10,6.7,5.1,��
2023/10/12,06:20,6.6,5.0,��
2023/10/12,06:30,6.6,5.0,��
2023/10/12,06:40,6.7,5.0,��
2023/10/12,06:50,6.7,5.0,��
2023/10/12,07:00,6.7,5.0,��
2023/10/12,07:10,6.7,4.9,��
2023/10/12,07:20,6.7,5.0,��
2023/10/12,07:30,6.7,4.9,��
2023/10/12,07:40,7.0,5.0,��
2023/10/12,07:50,6.9,5.0,��
2023/10/12,08:00,6.9,5.1,��
2023/10/12,08:10,6.8,5.0,��
2023/10/12,08:20,6.8,4.9,��
2023/10/12,08:30,6.8,5.0,��
2023/10/12,08:40,6.9,5.0,��
2023/10/12,08:50,7.0,5.2,��
2023/10/12,09:00,7.0,5.0,��
2023/10/12,09:10,6.8,5.1,��
2023/10/12,09:20,7.0,5.0,��
2023/10/12,09:30,6.8,5.1,��
2023/10/12,09:40,7.0,5.0,��
2023/10/12,09:50,6.9,4.9,��
2023/10/12,10:00,7.0,4.9,��
2023/10/12,10:10,6.9,5.1,��
2023/10/12,10:20,6.8,5.0,��
2023/10/12,10:30,6.9,5.1,��
2023/10/12,10:40,6.8,4.9,��
2023/10/12,10:50,6.9,4.9,��
2023/10/12,11:00,6.9,5.1,��
2023/10/12,11:10,7.0,5.1,��
2023/10/12,11:20,6.9,5.0,��
2023/10/12,11:30,6.9,4.9,��
2023/10/12,11:40,7.0,4.9,��
2023/10/12,11:50,7.1,4.9,��
2023/10/12,12:00,7.1,4.9,��
2023/10/12,12:10,7.0,5.0,��
2023/10/12,12:20,7.0,5.1,��
2023/10/12,12:30,7.0,5.1,��
2023/10/12,12:40,6.8,4.9,��
2023/10/12,12:50,7.0,4.9,��
2023/10/12,13:00,7.0,5.0,��
2023/10/12,13:10,7.0,5.0,��
2023/10/12,13:20,6.9,4.9,��
2023/10/12,13:30,7.0,4.9,��
2023/10/12,13:40,7.0,5.0,��
2023/10/12,13:50,6.8,4.9,��
2023/10/12,14:00,6.9,4.9,��
2023/10/12,14:10,6.9,4.9,��
2023/10/12,14:20,6.8,4.9,��
2023/10/12,14:30,6.8,4.8,��
2023/10/12,14:40,7.0,4.8,��
2023/10/12,14:50,7.0,4.8,��
2023/10/12,15:00,7.0,5.0,��
2023/10/12,15:10,6.9,4.9,��
2023/10/12,15:20,6.9,5.0,��
2023/10/12,15:30,6.9,5.0,��
2023/10/12,15:40,7.3,4.9,��
2023/10/12,15:50,7.1,5.0,��
2023/10/12,16:00,7.0,5.1,��
2023/10/12,16:10,7.0,5.0,��
2023/10/12,16:20,7.0,5.0,��
2023/10/12,16:30,7.0,4.9,��
2023/10/12,16:40,7.1,4.9,��
2023/10/12,16:50,7.0,5.0,��
2023/10/12,17:00,7.2,5.0,��
2023/10/12,17:10,7.0,5.1,��
2023/10/12,17:20,6.9,4.9,��
2023/10/12,17:30,6.9,4.8,��
2023/10/12,17:40,7.1,5.0,��
2023/10/12,17:50,7.1,5.0,��
2023/10/12,18:00,6.9,5.0,��
2023/10/12,18:10,7.0,4.9,��
2023/10/12,18:20,7.1,4.8,��
2023/10/12,18:30,7.2,4.9,��
2023/10/12,18:40,6.9,4.8,��
2023/10/12,18:50,7.0,4.9,��
2023/10/12,19:00,7.2,5.1,��
2023/10/12,19:10,7.0,4.9,��
2023/10/12,19:20,7.1,5.0,��
2023/10/12,19:30,7.0,5.1,��
2023/10/12,19:40,7.4,5.1,��
2023/10/12,19:50,7.1,4.9,��
2023/10/12,20:00,7.2,5.0,��
2023/10/12,20:10,7.2,5.0,��
2023/10/12,20:20,7.2,4.9,��
2023/10/12,20:30,7.1,5.0,��
2023/10/12,20:40,7.1,5.0,��
2023/10/12,20:50,6.9,5.0,��
2023/10/12,21:00,7.2,5.0,��
2023/10/12,21:10,7.3,5.0,��
2023/10/12,21:20,7.2,4.9,��
2023/10/12,21:30,7.2,5.0,��
2023/10/12,21:40,7.2,4.9,��
2023/10/12,21:50,7.1,5.0,��
2023/10/12,22:00,7.3,4.9,��
2023/10/12,22:10,7.1,5.2,��
2023/10/12,22:20,7.2,5.1,��
2023/10/12,22:30,7.0,5.0,��
2023/10/12,22:40,7.0,5.1,��
2023/10/12,22:50,6.9,4.9,��
2023/10/12,23:00,7.1,5.0,��
2023/10/12,23:10,7.1,4.9,��
2023/10/12,23:20,7.1,4.9,��
2023/10/12,23:30,7.3,4.8,��
2023/10/12,23:40,7.0,5.0,��
2023/10/12,23:50,7.2,5.1,��
